Location: ?????????
(41.1143°N, 22.7905°E)
Time: 01:01:35
(UTC+00:00)

MOS 1 Rocket - Pass Details

Date: 13 December 2025
Orbit: 609 x 814 km, 97.4° (Epoch: 17 January)

Event Time Altitude Azimuth Distance (km) Brightness Sun altitude
Rises 15:23:26 0° 136° (SE) 3,123 6.5 -4.6°
Reaches altitude 10° 15:25:55 10° 125° (SE) 2,240 5.6 -5.0°
Maximum altitude 15:30:05 28° 67° (ENE) 1,406 4.3 -5.7°
Drops below altitude 10° 15:34:27 10° 10° (N) 2,352 5.7 -6.5°
Sets 15:37:06 0° 359° (N) 3,308 6.5 -6.9°
